GEFSCGP_500_meanwind_180.txt.gz
Wind_Speed
11 11 12 12 12 13 13 13 12 12 14 14 14 15 17 18 20 21 23 24 25 25 25 25 25 26 27 28 28 28 29 29 29 30 30 31 32 32 33 33 32 33 33 34
12 12 13 13 13 13 13 13 12 12 13 14 14 14 16 18 19 20 21 22 23 24 24 24 25 25 25 27 27 27 28 29 29 30 30 31 32 33 34 35 35 35 35 35
13 13 13 13 13 14 14 13 13 12 13 13 14 14 16 18 19 20 21 22 23 24 25 25 25 26 26 27 28 28 29 29 30 30 31 32 33 34 35 35 36 37 38 38
13 14 14 14 13 13 13 13 12 12 12 12 13 14 15 18 20 20 21 23 24 25 26 26 27 27 28 28 28 29 29 30 31 32 32 33 33 34 36 36 37 38 39 40
13 13 13 13 13 13 13 12 13 13 13 13 15 16 15 18 19 20 21 23 24 26 27 27 28 28 28 28 29 30 31 31 32 32 33 34 35 35 36 37 38 39 39 40
13 13 14 13 13 13 13 13 14 14 14 14 15 17 17 19 19 20 21 23 24 26 27 28 29 29 29 29 30 30 31 32 32 33 34 34 35 35 36 37 38 39 40 41
14 15 14 14 14 14 15 15 15 15 15 15 16 17 18 19 20 21 21 23 24 26 27 28 29 30 31 31 31 32 33 33 33 34 34 35 36 36 36 38 39 40 41 42
16 16 16 16 16 16 16 16 16 18 18 17 17 17 18 19 20 21 22 23 24 26 27 28 29 31 32 33 33 33 34 34 34 35 35 36 37 38 39 40 41 42 43 44
18 18 18 17 17 17 17 17 17 19 19 19 19 19 19 20 21 22 23 24 25 26 27 29 30 32 33 34 35 35 35 35 36 36 37 38 39 39 41 42 43 43 44 45
20 19 19 19 19 18 18 18 19 20 21 21 20 19 20 20 21 23 25 26 26 27 27 29 31 33 34 35 35 36 36 36 37 38 39 40 41 42 42 43 44 44 44 44
21 21 21 21 21 21 21 21 22 22 23 23 23 21 20 21 22 24 25 26 27 28 28 29 31 32 34 35 36 37 37 38 39 40 41 41 42 43 43 43 44 44 44 44
23 23 23 23 23 23 24 24 24 24 25 26 26 24 22 23 25 26 27 28 29 29 29 31 32 33 34 35 36 38 39 39 40 41 42 43 43 44 45 45 45 45 45 45
27 26 26 25 25 25 26 26 26 27 27 27 28 26 25 26 27 29 29 30 31 31 32 32 33 34 35 37 38 39 40 41 42 42 43 44 44 45 45 46 46 46 46 46
30 29 28 28 28 28 28 29 29 29 30 30 29 28 28 29 30 31 32 32 33 34 35 35 36 37 38 39 40 41 42 43 43 44 44 45 45 45 45 46 46 46 46 46
32 32 31 31 32 32 31 31 31 32 32 32 31 31 30 32 33 33 34 35 35 35 36 37 38 38 39 39 40 41 42 43 43 43 44 44 45 46 46 46 46 46 46 46
34 35 35 35 34 35 35 33 33 34 34 34 34 33 34 35 36 36 36 36 36 37 38 38 38 39 39 40 41 41 42 42 42 43 43 44 44 45 45 45 46 46 46 46
37 37 38 38 37 39 38 35 35 35 35 36 36 35 36 37 38 37 37 37 38 38 39 39 39 40 40 40 40 41 41 42 42 43 44 44 44 44 44 45 45 45 44 44
39 39 40 40 40 40 38 37 36 36 36 37 37 37 38 38 38 38 38 38 38 39 39 39 40 40 40 40 41 41 42 43 43 44 45 45 44 44 44 44 44 43 42 42
40 40 41 42 43 43 40 39 38 38 38 37 37 38 38 38 38 38 38 38 38 38 39 39 40 40 41 41 41 42 42 43 43 44 45 45 44 44 44 43 42 41 41 41
42 42 42 43 44 44 42 40 40 40 40 38 39 39 39 38 39 38 38 38 38 39 39 40 40 41 42 42 42 43 43 43 44 44 44 44 44 43 42 42 41 40 40 40
43 43 43 43 44 44 42 41 41 41 40 40 41 40 40 40 40 40 39 39 39 40 40 41 41 42 43 43 43 44 43 44 44 44 44 44 42 41 41 41 40 39 39 38
44 44 44 44 44 43 41 41 41 41 42 42 42 42 41 41 42 41 41 40 40 41 42 42 42 42 43 44 44 43 43 44 44 43 42 41 40 40 39 39 39 38 38 37
44 44 44 44 44 43 42 42 41 42 42 43 43 43 43 43 43 43 43 43 43 43 43 43 43 43 43 44 44 44 43 43 42 41 39 38 38 38 38 38 37 37 37 36
45 45 45 45 43 42 42 42 42 43 44 44 44 44 45 45 44 45 45 45 45 44 44 44 44 44 44 44 44 43 42 42 41 40 38 37 37 37 37 37 37 37 36 36
45 45 45 45 44 44 44 44 44 45 45 45 46 46 46 46 46 46 46 46 45 45 44 44 44 44 43 42 42 41 41 40 39 38 38 37 37 36 36 36 36 35 35 34
44 44 45 46 45 46 45 44 45 45 45 45 45 45 46 46 46 46 45 45 45 44 44 43 43 43 41 40 40 39 39 37 37 36 36 36 36 35 35 35 34 34 34 33

GEFSCGP_500_meanwind_186.txt.gz
Wind_Speed
12 11 10 10 10 9 9 10 11 11 12 11 11 12 13 15 16 18 20 22 23 24 26 27 27 28 28 28 29 29 28 29 30 30 30 30 30 30 30 31 32 32 32 32
12 12 11 11 11 10 10 10 11 11 12 12 11 11 12 15 16 17 19 20 21 23 24 26 27 28 28 29 29 28 29 29 29 30 30 30 30 30 31 32 34 34 34 34
13 12 12 12 12 11 12 12 12 12 12 12 12 11 11 13 15 16 18 20 21 22 24 25 25 27 28 28 29 28 28 28 29 30 30 30 31 31 32 33 34 36 36 35
13 12 13 13 13 13 13 13 13 13 13 13 13 12 12 14 15 16 18 20 21 23 24 26 26 26 27 28 29 29 29 29 30 31 31 31 32 33 33 33 34 35 36 37
14 13 13 14 14 14 14 14 14 13 13 13 13 14 14 15 15 16 18 19 21 23 25 26 27 27 28 29 29 30 31 31 31 32 32 32 32 33 34 34 35 35 36 37
15 15 14 14 14 15 14 14 14 14 14 15 14 16 16 17 16 17 18 20 21 23 24 26 27 28 29 30 31 31 31 32 32 32 33 34 34 34 35 35 36 36 37 38
15 15 15 15 15 15 15 15 15 15 16 16 15 16 17 17 17 19 20 21 22 24 25 27 27 28 29 31 32 32 32 33 33 34 34 34 34 35 36 36 37 37 38 39
17 17 17 17 17 16 16 16 17 18 18 18 17 17 17 17 18 19 21 22 24 25 26 27 28 28 30 31 33 34 34 33 34 35 35 35 35 36 37 37 38 39 40 40
20 19 19 19 18 18 18 18 18 19 20 20 20 19 18 18 19 20 21 22 24 25 26 27 28 29 30 31 32 34 34 34 35 36 37 38 37 38 38 39 40 40 41 42
22 22 21 21 21 21 20 20 20 21 22 22 21 21 20 20 21 21 22 23 24 26 27 28 29 29 30 31 32 33 34 35 36 36 37 38 39 40 40 42 42 42 43 44
24 24 24 23 22 22 22 22 22 23 24 24 24 23 22 22 23 24 24 25 26 27 28 29 30 31 32 32 33 35 36 36 37 38 39 39 40 41 43 43 43 44 45 46
26 27 26 26 26 25 25 25 25 25 26 26 26 25 24 24 25 26 27 28 29 29 29 30 31 33 34 34 35 36 37 38 38 39 40 41 42 42 43 44 45 46 47 47
29 29 29 29 29 28 28 28 28 29 29 29 28 27 27 27 28 29 29 30 31 32 32 33 33 34 35 36 37 38 39 39 40 41 42 42 43 44 44 45 46 47 47 47
32 32 31 31 31 31 31 30 30 31 31 31 30 29 29 30 31 31 32 32 33 34 35 36 36 36 37 38 39 39 40 41 42 43 43 44 45 45 45 45 46 46 47 47
34 34 34 33 33 34 33 33 33 33 33 34 32 31 31 33 33 33 34 34 35 36 37 37 38 39 39 40 40 41 42 42 42 43 44 45 46 46 46 46 46 47 47 47
37 37 37 36 36 36 36 35 35 35 35 35 35 34 34 35 35 36 36 36 36 37 38 39 39 40 41 42 42 43 43 43 43 44 45 45 45 46 46 47 47 47 48 48
37 38 39 39 38 39 39 36 37 37 36 36 37 36 37 38 38 38 38 38 38 38 39 39 40 41 42 42 42 42 42 43 44 44 44 45 46 46 47 47 48 48 48 48
39 39 40 41 41 41 39 38 38 38 38 39 39 39 39 40 40 40 40 39 40 40 40 40 41 41 41 42 43 43 43 44 44 44 45 46 46 47 46 47 47 47 47 47
40 40 41 42 42 42 40 40 40 40 41 41 41 40 41 41 41 41 40 40 40 40 41 41 41 42 42 43 43 43 43 44 45 45 45 46 46 46 45 45 45 46 46 46
41 41 42 42 43 43 42 41 42 42 42 41 41 41 41 41 42 41 42 41 41 41 42 42 42 42 43 43 43 43 44 45 45 45 45 46 45 45 44 44 44 45 45 44
42 42 42 43 44 44 43 42 43 43 43 42 43 43 42 42 42 42 42 42 43 43 43 43 43 43 43 43 43 44 44 44 44 44 44 44 44 43 43 43 43 43 43 42
42 42 42 42 43 43 42 42 42 43 44 44 44 44 43 43 43 42 42 43 43 43 44 44 44 44 44 44 44 44 44 44 43 43 43 42 42 42 42 42 42 42 42 41
42 42 43 43 43 42 42 42 43 44 44 44 44 44 44 45 45 44 44 44 44 44 44 44 44 44 44 44 44 44 44 44 43 43 42 42 42 42 42 41 41 41 40 40
43 43 43 43 42 41 42 43 44 44 44 44 44 44 44 44 44 44 43 43 44 44 44 44 43 43 43 44 44 43 43 43 42 42 41 41 40 41 41 40 40 39 39 39
43 44 44 43 42 43 43 43 43 43 44 44 44 44 44 44 44 44 43 43 44 44 44 43 43 42 42 42 42 42 42 42 42 41 40 40 39 39 39 39 39 39 38 38
41 42 43 43 42 43 42 42 42 42 42 42 42 42 42 43 43 42 42 42 42 42 42 42 42 42 41 41 41 42 42 41 41 40 39 39 38 38 38 38 38 37 37 37

GEFSCGP_500_meanwind_192.txt.gz
Wind_Speed
15 15 14 15 15 15 15 15 14 15 14 14 14 14 15 16 17 18 19 20 21 21 22 23 25 25 25 26 27 29 29 29 29 28 29 29 30 31 31 31 32 32 32 33
16 15 15 15 15 15 15 15 15 15 14 15 15 14 14 15 16 17 18 19 20 21 22 24 25 26 26 26 27 27 29 29 29 29 29 30 31 31 31 32 33 34 34 34
16 16 16 16 16 16 15 15 15 15 15 15 14 14 14 15 17 17 19 20 21 21 22 24 25 25 26 26 27 28 29 29 29 29 30 31 31 32 32 34 34 34 34 34
17 16 16 17 17 17 16 15 15 15 16 16 16 17 16 16 17 18 19 20 21 21 22 23 25 26 26 27 27 27 28 30 30 30 31 32 31 32 32 32 33 34 34 34
18 17 17 16 17 17 16 16 16 17 17 18 17 17 16 17 17 18 20 20 20 21 22 23 25 26 26 27 28 28 29 30 30 30 30 30 31 31 31 31 31 32 33 34
19 18 18 17 17 17 17 17 17 18 19 19 17 18 17 17 18 19 20 21 21 22 23 24 25 26 26 27 29 29 30 31 31 31 31 31 31 32 32 32 33 33 33 35
19 19 19 18 18 18 18 17 18 19 20 20 18 19 18 18 19 19 21 22 23 24 24 25 27 27 27 28 29 30 31 32 33 33 33 33 33 34 34 34 35 35 35 36
21 20 19 19 19 19 19 19 20 20 21 21 20 21 20 19 19 20 21 23 24 26 26 27 28 28 28 29 30 30 31 32 33 34 35 35 35 36 36 36 36 37 37 37
22 22 21 21 20 21 21 22 22 23 23 24 24 24 23 22 22 22 23 24 25 27 27 28 29 30 31 31 32 32 33 33 34 34 35 36 36 37 37 38 38 38 38 39
25 25 23 22 22 22 23 23 24 25 25 26 26 25 25 24 24 24 25 26 27 28 29 29 31 32 32 32 33 34 34 35 36 36 36 36 37 38 39 40 40 40 40 41
27 27 26 25 25 24 25 25 26 27 28 29 29 28 27 26 26 27 27 27 29 30 30 31 32 33 34 35 35 35 36 36 36 37 37 37 38 40 41 42 42 42 43 43
29 29 29 28 28 28 28 28 28 29 29 30 31 30 29 28 29 29 30 29 30 31 32 33 34 34 35 35 36 36 37 38 38 39 39 40 40 42 43 44 44 45 45 46
32 32 32 31 31 30 30 30 31 31 32 32 32 32 30 31 32 32 32 32 32 33 34 34 35 35 35 36 37 38 39 40 40 41 42 42 43 43 44 45 46 47 47 48
34 34 34 34 33 33 33 32 33 34 34 34 33 32 31 33 34 34 35 35 35 36 36 37 37 37 37 38 39 39 40 41 42 42 43 44 44 45 46 47 47 48 48 48
37 37 36 36 36 36 36 35 35 36 36 37 35 35 33 35 36 37 37 37 38 38 38 39 39 39 40 40 41 41 42 43 43 44 44 45 46 47 47 48 49 49 49 49
39 40 39 39 38 39 40 39 38 38 39 39 39 38 37 38 39 39 39 40 40 40 40 41 41 42 42 42 43 43 44 45 45 45 45 46 47 48 48 49 50 50 50 50
41 42 42 42 41 43 43 40 40 41 40 40 41 40 40 41 41 41 41 41 42 42 42 42 43 44 44 44 45 45 46 46 46 46 46 47 48 49 50 50 51 51 51 51
42 42 43 44 44 45 43 42 42 43 42 42 42 42 42 43 42 42 42 42 43 43 44 44 45 45 45 46 46 46 46 46 47 47 48 48 49 49 50 51 51 52 52 52
42 42 43 44 45 45 43 42 43 43 43 42 43 43 44 44 44 43 44 44 44 44 45 45 46 46 46 46 47 47 47 47 47 48 49 49 49 50 50 50 51 51 51 50
42 43 43 44 45 45 43 43 43 44 44 43 43 43 44 44 45 45 46 46 46 46 46 46 46 47 46 47 47 47 47 48 48 48 49 49 49 50 50 49 49 49 49 49
42 42 43 43 45 45 44 44 44 44 45 44 45 45 45 45 46 46 46 47 47 47 47 47 47 46 46 46 47 47 48 48 49 49 49 49 49 49 49 48 48 47 47 47
42 42 43 43 45 45 44 44 45 45 45 46 46 46 46 47 47 47 47 47 47 47 47 46 46 46 46 46 47 47 47 48 48 48 48 48 47 47 47 46 46 46 46 46
41 42 43 44 44 44 44 44 45 45 46 46 46 47 47 47 48 48 48 47 47 47 47 47 47 46 46 46 47 47 47 47 47 46 46 46 46 45 45 45 45 45 45 45
41 41 43 43 43 44 44 44 45 45 46 46 46 47 47 47 47 48 48 47 47 47 46 46 47 46 46 46 46 46 45 45 45 44 44 44 44 43 43 43 44 44 43 43
41 41 42 43 43 44 44 45 46 46 46 46 47 47 47 47 47 47 47 46 46 46 46 46 45 45 45 45 45 44 44 44 44 44 44 43 43 43 42 42 42 42 42 42
40 42 44 44 44 45 45 45 45 45 45 46 46 46 46 46 46 45 45 46 46 46 45 45 45 44 44 44 44 44 44 43 43 43 43 42 42 42 42 42 41 41 41 40

GEFSCGP_500_meanwind_198.txt.gz
Wind_Speed
17 17 17 17 18 18 17 17 16 16 15 15 15 15 15 17 18 18 19 20 20 20 19 20 21 21 23 24 25 26 28 28 28 28 27 26 26 27 27 28 30 30 30 30
17 17 17 18 17 17 17 17 17 17 16 16 15 15 15 16 17 17 19 20 21 20 20 21 21 22 22 23 24 25 26 27 27 28 28 28 27 27 26 27 29 29 30 31
18 17 18 18 17 17 17 17 17 17 17 17 17 16 15 16 17 18 18 19 20 20 20 21 22 22 22 23 24 24 25 27 27 28 28 28 30 29 28 28 29 30 31 32
17 18 17 17 18 18 18 17 18 17 17 17 17 17 15 16 16 17 18 18 19 20 21 21 22 22 23 24 24 24 24 25 27 28 28 29 30 29 28 28 29 30 31 32
18 18 18 18 18 18 18 18 18 18 18 18 17 18 15 15 16 16 17 18 19 20 21 22 22 22 23 24 25 25 25 25 27 28 29 30 30 30 29 29 30 31 32 33
20 20 19 18 18 18 18 18 18 18 18 18 17 18 16 16 16 17 18 19 20 21 21 21 22 22 23 24 25 26 27 27 28 28 29 30 30 30 29 30 31 32 33 33
23 22 21 20 20 20 20 20 20 20 20 19 18 19 17 17 17 18 19 20 21 22 22 23 23 23 23 25 26 27 28 28 29 29 29 30 30 30 31 32 32 33 34 35
25 24 23 23 22 22 22 21 21 22 22 21 20 20 18 18 18 19 20 21 22 23 23 24 24 25 25 26 27 28 29 30 30 30 30 30 32 32 33 33 34 35 36 37
26 26 25 25 24 23 23 23 22 23 23 23 23 22 20 20 19 19 20 21 22 23 24 25 26 26 27 27 29 29 30 31 31 31 32 32 33 33 34 35 36 36 37 39
28 28 26 26 26 25 25 24 23 24 24 24 24 22 21 20 20 20 21 22 23 24 25 26 26 27 28 29 30 31 31 32 32 33 34 34 34 36 36 37 37 39 39 40
30 30 28 27 27 26 26 26 25 26 26 26 26 24 23 23 23 23 23 24 24 25 26 27 28 29 29 31 32 33 34 35 35 36 36 36 37 38 38 39 40 41 41 42
31 31 31 29 29 28 28 28 27 28 28 28 28 26 26 25 26 26 26 26 27 28 29 29 30 31 32 32 33 34 36 37 38 39 38 39 40 40 41 42 42 43 44 44
33 33 33 32 31 31 31 30 30 30 31 30 30 28 28 28 28 29 29 29 30 31 31 32 33 34 35 36 36 37 37 38 39 40 40 41 42 43 44 44 45 46 46 46
35 35 35 34 33 33 33 33 33 33 33 33 31 29 29 31 31 31 32 33 33 34 34 35 36 37 38 39 39 40 40 41 41 42 42 43 44 44 45 46 47 48 48 49
35 36 36 36 36 36 36 35 35 36 35 35 33 33 31 33 34 35 36 36 36 36 37 38 39 39 40 41 41 42 42 43 44 44 45 45 46 46 46 47 49 50 51 51
37 37 37 37 37 38 38 38 37 37 37 38 37 36 35 36 37 37 38 38 39 39 40 41 41 42 43 43 44 44 44 45 46 46 46 47 47 47 48 48 49 50 51 52
39 39 39 39 39 40 41 39 38 39 39 39 39 37 38 39 39 39 40 40 40 41 42 43 43 44 45 46 46 46 46 47 47 48 48 48 49 49 50 50 50 51 51 51
39 39 40 41 41 42 40 39 39 40 39 40 41 40 41 41 41 41 42 43 43 43 43 44 45 45 46 47 47 48 48 49 49 49 49 50 50 51 51 51 51 51 51 51
40 39 40 40 42 42 40 40 39 40 40 40 41 41 42 42 43 42 43 43 44 44 44 44 45 46 46 47 47 48 49 49 49 49 50 50 51 51 51 51 51 51 52 51
40 40 40 40 41 41 40 40 40 41 41 40 41 41 42 42 43 42 43 44 44 44 44 44 45 45 46 47 47 48 48 49 49 49 49 50 50 51 51 51 51 51 51 51
39 39 39 40 41 41 40 40 40 41 40 40 41 41 42 42 43 43 43 43 44 44 45 45 46 46 47 47 48 48 48 48 48 48 48 49 50 50 50 50 50 50 50 50
39 40 39 39 40 40 40 40 40 40 40 40 40 41 41 42 42 43 43 43 44 45 46 46 46 47 47 47 48 47 47 47 47 47 47 47 48 48 48 49 48 49 48 48
38 38 38 39 39 39 39 40 41 41 41 40 41 41 42 42 43 43 43 44 45 45 46 46 46 46 46 47 47 47 47 47 46 46 45 45 46 46 46 46 46 46 46 46
37 38 39 39 38 39 39 40 41 41 41 41 41 42 42 42 42 43 43 43 44 44 45 46 46 46 46 46 46 46 46 46 46 45 45 44 44 44 44 44 44 44 44 45
38 39 39 40 39 39 39 39 39 40 40 41 41 41 41 42 42 42 42 43 44 45 45 46 46 46 46 46 45 45 45 45 44 44 43 43 43 43 43 43 43 44 44 44
38 39 39 39 39 39 39 39 39 39 40 40 40 41 41 41 42 42 43 44 45 45 45 45 45 45 45 45 44 44 44 44 43 42 41 41 42 42 42 42 42 42 43 43

GEFSCGP_500_meanwind_204.txt.gz
Wind_Speed
21 21 21 21 21 22 21 21 21 22 22 22 22 22 22 22 22 22 21 22 22 22 22 22 23 24 23 25 26 27 27 27 28 26 26 28 28 28 28 29 29 29 30 29
23 22 21 22 22 22 22 22 22 22 22 22 22 22 22 23 23 23 23 23 23 23 23 23 24 25 25 24 25 26 27 27 28 27 26 27 29 30 30 29 30 31 31 31
24 23 23 24 23 23 23 23 23 23 23 23 23 22 22 23 23 24 24 24 24 23 24 24 25 25 25 26 26 26 27 28 28 28 28 29 29 29 29 29 31 32 32 32
26 25 25 25 25 25 24 23 23 23 24 24 24 24 22 22 23 23 24 24 24 24 24 25 25 25 25 26 26 27 27 28 28 28 28 29 28 29 29 29 30 32 33 33
27 26 26 26 26 26 25 24 24 24 25 24 23 24 22 22 22 22 22 23 24 24 25 25 26 27 26 26 27 27 27 27 28 28 28 29 29 29 30 30 30 31 32 33
29 27 27 27 27 27 26 26 26 26 26 26 23 24 23 22 22 22 23 23 24 25 25 26 26 26 26 26 26 27 28 28 28 29 29 30 30 30 30 31 31 32 32 33
30 29 29 28 28 28 27 27 27 28 28 27 25 25 24 22 23 23 23 24 24 24 25 26 26 26 26 26 26 28 28 29 29 30 30 30 31 31 32 32 32 32 32 33
32 31 30 29 28 28 28 28 28 29 29 28 27 27 25 23 23 24 24 25 25 25 26 26 26 27 26 26 28 28 29 29 30 31 32 32 32 33 33 33 33 33 33 34
34 33 31 30 30 29 30 30 29 30 30 29 29 27 25 24 24 24 25 25 26 26 27 27 27 28 27 27 28 29 29 30 30 31 32 32 33 33 34 34 34 34 35 35
35 35 34 33 32 32 31 31 31 31 32 31 30 28 26 25 24 25 26 26 27 28 28 28 29 29 29 29 29 30 30 30 31 31 32 33 34 34 35 36 36 36 36 37
37 38 37 36 35 34 34 34 33 33 34 33 32 30 28 27 27 27 28 28 28 29 30 30 30 31 31 31 31 31 31 32 33 33 34 34 36 37 37 38 38 38 39 40
38 39 40 39 37 36 37 36 35 35 35 35 35 33 31 30 30 29 29 29 29 30 31 31 31 32 33 33 33 34 34 34 35 36 37 37 38 39 39 40 41 41 41 42
38 40 41 41 41 40 39 38 37 37 37 37 36 34 32 32 32 32 31 31 31 31 32 32 32 33 34 35 36 37 38 37 37 38 39 40 40 41 42 42 43 43 43 44
40 41 41 41 40 40 40 39 38 39 39 39 37 34 33 34 34 34 34 33 33 33 34 34 35 35 36 37 38 39 40 40 40 40 41 41 42 44 45 45 45 45 45 46
39 40 41 40 40 40 40 39 39 40 40 40 38 37 35 36 37 36 36 36 35 36 36 37 37 38 39 39 40 41 42 43 44 43 44 44 45 45 46 46 46 47 47 48
40 40 40 41 40 40 41 41 41 41 41 41 40 39 37 38 39 39 39 39 38 38 39 40 40 41 41 42 42 43 44 45 46 46 46 46 47 47 48 48 48 49 49 49
42 42 41 41 41 42 44 42 42 42 42 41 42 40 39 40 41 41 41 41 41 41 41 42 43 43 44 44 44 45 46 46 46 47 47 47 48 48 49 50 50 51 51 52
42 42 42 41 41 44 42 42 42 42 42 42 42 41 41 41 42 42 42 42 43 43 43 44 45 45 45 46 46 46 47 46 46 47 47 48 49 50 51 52 52 53 53 54
40 41 42 41 41 42 41 41 41 41 42 42 42 42 42 43 43 43 43 43 43 44 44 45 46 46 47 47 47 47 48 48 48 48 49 49 50 51 52 53 53 54 54 55
38 39 40 41 42 41 39 40 41 42 42 41 42 42 42 43 43 43 44 44 44 45 45 46 46 46 47 47 48 48 49 49 50 50 51 51 51 52 52 53 54 54 54 54
36 37 38 39 41 40 39 39 40 42 41 41 41 41 41 42 43 44 45 45 45 45 45 45 46 47 47 48 49 49 49 50 50 51 51 51 52 52 52 52 52 52 52 52
36 36 35 36 38 38 37 38 39 40 40 40 41 41 41 42 43 43 44 44 45 45 45 45 46 46 47 48 49 49 49 50 51 51 51 51 51 51 51 51 51 51 50 50
36 36 35 35 36 36 37 38 38 39 39 40 41 41 41 42 42 42 43 44 44 44 45 46 46 46 47 48 49 49 50 50 51 51 52 52 52 51 50 50 49 48 48 48
36 37 37 37 36 35 35 36 38 39 39 39 39 40 41 41 41 42 42 43 43 44 45 46 46 47 47 48 49 50 51 52 52 52 51 51 51 50 49 48 47 47 46 46
34 36 37 38 37 37 37 37 38 38 39 39 40 40 41 41 41 41 42 42 43 44 45 46 46 47 47 48 49 50 51 52 51 50 50 49 49 48 47 46 46 46 46 45
34 35 36 38 38 38 38 38 39 39 39 39 40 40 41 41 41 41 41 42 42 43 44 45 45 46 47 48 48 49 50 50 50 49 48 47 46 46 45 45 45 44 44 44